GJE24 CYHZ-KORD

Flight info

Callsign GJE24
Flight time N/A
Altitude 34000
Route CYHZ4/23 ACADN DUVIN AJJAY Q822 FNT WYNDE3
Aircraft A346/H-SDE2E3FGHIJ3J4J5M1RWXY/LB1D1

Departure

Time N/A
Airport Halifax / Stanfield International Airport (CYHZ)

Arrival

Time 2026-05-05 04:31
Airport Chicago O'Hare International Airport (KORD)
Time Latitude Longitude Altitude Speed Heading
2026-05-05 03:51 41.84630 -92.46275 33766 ft 470 kts 207°
2026-05-05 03:51 41.81447 -92.47463 33770 ft 480 kts 199°
2026-05-05 03:52 41.78094 -92.47991 33773 ft 491 kts 190°
2026-05-05 03:52 41.74640 -92.47793 33738 ft 503 kts 180°
2026-05-05 03:52 41.67874 -92.45105 33763 ft 524 kts 160°
2026-05-05 03:53 41.64720 -92.42576 33764 ft 533 kts 149°
2026-05-05 03:53 41.61892 -92.39305 33758 ft 542 kts 138°
2026-05-05 03:53 41.59501 -92.35372 33751 ft 549 kts 127°
2026-05-05 03:53 41.57647 -92.30889 33740 ft 553 kts 116°
2026-05-05 03:54 41.56417 -92.26019 33722 ft 554 kts 104°
2026-05-05 03:54 41.55860 -92.20940 33726 ft 551 kts 92°
2026-05-05 03:54 41.56536 -92.10799 33740 ft 547 kts 79°
2026-05-05 03:55 41.57153 -92.05788 33638 ft 547 kts 79°
2026-05-05 03:55 41.57772 -92.00769 33327 ft 544 kts 79°
2026-05-05 03:55 41.58368 -91.95782 33026 ft 542 kts 79°
2026-05-05 03:55 41.58940 -91.90814 32731 ft 540 kts 79°
2026-05-05 03:56 41.59498 -91.85856 32470 ft 538 kts 80°
2026-05-05 03:56 41.60040 -91.80913 32177 ft 536 kts 80°
2026-05-05 03:56 41.60574 -91.75982 31890 ft 534 kts 80°
2026-05-05 03:56 41.61100 -91.71079 31607 ft 532 kts 80°
2026-05-05 03:57 41.61621 -91.66190 31336 ft 530 kts 80°
2026-05-05 03:57 41.62140 -91.61313 31056 ft 528 kts 80°
2026-05-05 03:57 41.62655 -91.56446 30778 ft 526 kts 80°
2026-05-05 03:57 41.63165 -91.51613 30498 ft 524 kts 81°
2026-05-05 03:58 41.63675 -91.46791 30227 ft 521 kts 81°
2026-05-05 03:58 41.64177 -91.42002 29956 ft 518 kts 81°
2026-05-05 03:58 41.64673 -91.37233 29655 ft 516 kts 81°
2026-05-05 03:58 41.65165 -91.32483 29335 ft 514 kts 81°
2026-05-05 03:59 41.65653 -91.27753 29013 ft 512 kts 81°
2026-05-05 03:59 41.66139 -91.23028 28686 ft 510 kts 81°
2026-05-05 03:59 41.66619 -91.18339 28377 ft 508 kts 81°
2026-05-05 03:59 41.67096 -91.13665 28067 ft 505 kts 81°
2026-05-05 04:00 41.67571 -91.09012 27764 ft 503 kts 81°
2026-05-05 04:00 41.68040 -91.04379 27461 ft 501 kts 81°
2026-05-05 04:00 41.68497 -90.99836 27174 ft 499 kts 81°
2026-05-05 04:00 41.68966 -90.95164 26888 ft 497 kts 81°
2026-05-05 04:01 41.69418 -90.90639 26606 ft 496 kts 81°
2026-05-05 04:01 41.69873 -90.86069 26329 ft 494 kts 81°
2026-05-05 04:01 41.70324 -90.81517 26053 ft 492 kts 81°
2026-05-05 04:01 41.70772 -90.76978 25778 ft 491 kts 81°
2026-05-05 04:02 41.71219 -90.72458 25460 ft 488 kts 81°
2026-05-05 04:02 41.71658 -90.67976 25086 ft 483 kts 82°
2026-05-05 04:02 41.72093 -90.63518 24723 ft 481 kts 82°
2026-05-05 04:02 41.72524 -90.59072 24357 ft 479 kts 82°
2026-05-05 04:03 41.72950 -90.54663 24009 ft 477 kts 82°
2026-05-05 04:03 41.73375 -90.50252 23646 ft 475 kts 82°
2026-05-05 04:03 41.73796 -90.45871 23294 ft 473 kts 82°
2026-05-05 04:03 41.74213 -90.41501 22892 ft 471 kts 82°
2026-05-05 04:04 41.74627 -90.37159 22472 ft 468 kts 82°
2026-05-05 04:04 41.75039 -90.32847 22070 ft 464 kts 82°
2026-05-05 04:04 41.75441 -90.28580 21678 ft 460 kts 82°
2026-05-05 04:04 41.75839 -90.24332 21281 ft 458 kts 82°
2026-05-05 04:05 41.76233 -90.20110 20894 ft 456 kts 82°
2026-05-05 04:05 41.76625 -90.15903 20509 ft 453 kts 82°
2026-05-05 04:05 41.77014 -90.11707 20125 ft 451 kts 82°
2026-05-05 04:05 41.77399 -90.07539 19751 ft 449 kts 82°
2026-05-05 04:06 41.77783 -90.03388 19397 ft 448 kts 82°
2026-05-05 04:06 41.78163 -89.99262 19030 ft 446 kts 82°
2026-05-05 04:06 41.78539 -89.95146 18669 ft 444 kts 82°
2026-05-05 04:06 41.78912 -89.91044 18318 ft 442 kts 82°
2026-05-05 04:07 41.79282 -89.86951 17962 ft 440 kts 82°
2026-05-05 04:07 41.79526 -89.84258 17693 ft 439 kts 82°
2026-05-05 04:07 41.79892 -89.80203 17295 ft 435 kts 82°
2026-05-05 04:07 41.80252 -89.76199 16894 ft 430 kts 82°
2026-05-05 04:08 41.80606 -89.72245 16504 ft 425 kts 82°
2026-05-05 04:08 41.80955 -89.68329 16118 ft 420 kts 82°
2026-05-05 04:08 41.81298 -89.64454 15734 ft 415 kts 82°
2026-05-05 04:08 41.81636 -89.60624 15357 ft 411 kts 82°
2026-05-05 04:09 41.81970 -89.56833 14981 ft 407 kts 83°
2026-05-05 04:09 41.82300 -89.53073 14606 ft 403 kts 83°
2026-05-05 04:09 41.82625 -89.49351 14239 ft 399 kts 83°
2026-05-05 04:09 41.82945 -89.45673 13874 ft 396 kts 83°
2026-05-05 04:10 41.83261 -89.42018 13514 ft 392 kts 83°
2026-05-05 04:10 41.83574 -89.38398 13096 ft 388 kts 83°
2026-05-05 04:10 41.83883 -89.34811 12707 ft 385 kts 83°
2026-05-05 04:10 41.84188 -89.31254 12375 ft 380 kts 83°
2026-05-05 04:11 41.84485 -89.27775 12128 ft 372 kts 83°
2026-05-05 04:11 41.84777 -89.24348 11872 ft 365 kts 83°
2026-05-05 04:11 41.85060 -89.20991 11624 ft 359 kts 83°
2026-05-05 04:11 41.85337 -89.17694 11318 ft 351 kts 83°
2026-05-05 04:12 41.85607 -89.14491 11060 ft 338 kts 83°
2026-05-05 04:12 41.85868 -89.11388 10806 ft 332 kts 83°
2026-05-05 04:12 41.86125 -89.08316 10561 ft 330 kts 84°
2026-05-05 04:12 41.86379 -89.05257 10271 ft 328 kts 84°
2026-05-05 04:13 41.86632 -89.02213 10047 ft 327 kts 84°
2026-05-05 04:13 41.86883 -88.99193 9817 ft 325 kts 84°
2026-05-05 04:13 41.87130 -88.96185 9572 ft 323 kts 84°
2026-05-05 04:13 41.87376 -88.93197 9317 ft 321 kts 84°
2026-05-05 04:14 41.87621 -88.90218 9058 ft 319 kts 84°
2026-05-05 04:14 41.87863 -88.87259 8801 ft 318 kts 84°
2026-05-05 04:14 41.88102 -88.84313 8540 ft 316 kts 84°
2026-05-05 04:14 41.88335 -88.81396 8299 ft 312 kts 83°
2026-05-05 04:15 41.88568 -88.78514 8049 ft 309 kts 83°
2026-05-05 04:15 41.88801 -88.75648 7793 ft 308 kts 83°
2026-05-05 04:15 41.89032 -88.72797 7544 ft 305 kts 83°
2026-05-05 04:15 41.89258 -88.69977 7304 ft 302 kts 83°
2026-05-05 04:16 41.89479 -88.67217 7056 ft 300 kts 83°
2026-05-05 04:16 41.89700 -88.64441 6814 ft 298 kts 83°
2026-05-05 04:16 41.89920 -88.61681 6571 ft 296 kts 83°
2026-05-05 04:16 41.90138 -88.58942 6331 ft 294 kts 83°
2026-05-05 04:17 41.90352 -88.56227 6085 ft 291 kts 83°
2026-05-05 04:17 41.90562 -88.53535 5830 ft 288 kts 83°
2026-05-05 04:17 41.90769 -88.50862 5551 ft 286 kts 83°
2026-05-05 04:17 41.90976 -88.48207 5298 ft 285 kts 82°
2026-05-05 04:18 41.91182 -88.45564 5042 ft 284 kts 82°
2026-05-05 04:18 41.91389 -88.42919 4799 ft 285 kts 82°
2026-05-05 04:18 41.91595 -88.40276 4550 ft 284 kts 82°
2026-05-05 04:18 41.91800 -88.37633 4288 ft 283 kts 82°
2026-05-05 04:19 41.92004 -88.35004 4050 ft 282 kts 82°
2026-05-05 04:19 41.92206 -88.32381 4006 ft 282 kts 82°
2026-05-05 04:19 41.92409 -88.29752 4004 ft 282 kts 82°
2026-05-05 04:19 41.92610 -88.27129 3982 ft 283 kts 82°
2026-05-05 04:20 41.92812 -88.24492 3999 ft 284 kts 82°
2026-05-05 04:20 41.93011 -88.21858 3986 ft 283 kts 82°
2026-05-05 04:20 41.93211 -88.19221 3988 ft 283 kts 82°
2026-05-05 04:20 41.93409 -88.16590 3998 ft 283 kts 82°
2026-05-05 04:21 41.93608 -88.13956 4003 ft 283 kts 82°
2026-05-05 04:21 41.93805 -88.11324 3966 ft 283 kts 82°
2026-05-05 04:21 41.94002 -88.08696 3980 ft 283 kts 82°
2026-05-05 04:21 41.94201 -88.06076 3759 ft 277 kts 83°
2026-05-05 04:22 41.94393 -88.03535 3462 ft 269 kts 84°
2026-05-05 04:22 41.94573 -88.01060 3106 ft 263 kts 84°
2026-05-05 04:22 41.94750 -87.98652 2831 ft 256 kts 85°
2026-05-05 04:22 41.94924 -87.96305 2578 ft 248 kts 85°
2026-05-05 04:23 41.95088 -87.94050 2496 ft 239 kts 85°
2026-05-05 04:23 41.95251 -87.91814 2501 ft 239 kts 86°
2026-05-05 04:23 41.95411 -87.89579 2501 ft 241 kts 86°
2026-05-05 04:23 41.95571 -87.87337 2528 ft 239 kts 86°
2026-05-05 04:24 41.95726 -87.85176 2491 ft 224 kts 86°
2026-05-05 04:24 41.95874 -87.83165 2466 ft 209 kts 86°
2026-05-05 04:24 41.96013 -87.81248 2483 ft 208 kts 86°
2026-05-05 04:25 41.96292 -87.77341 2496 ft 209 kts 86°
2026-05-05 04:25 41.96428 -87.75423 2497 ft 209 kts 86°
2026-05-05 04:25 41.96563 -87.73482 2509 ft 206 kts 84°
2026-05-05 04:25 41.96689 -87.71573 2501 ft 199 kts 81°
2026-05-05 04:26 41.97115 -87.69864 2476 ft 198 kts 47°
2026-05-05 04:26 41.98203 -87.68856 2489 ft 186 kts
2026-05-05 04:26 41.99394 -87.69032 2489 ft 167 kts 321°
2026-05-05 04:26 42.00062 -87.70168 2490 ft 153 kts 278°
2026-05-05 04:27 41.99857 -87.71524 2484 ft 157 kts 236°
2026-05-05 04:27 41.98951 -87.72462 2513 ft 168 kts 224°
2026-05-05 04:27 41.98149 -87.73537 2499 ft 154 kts 239°
2026-05-05 04:27 41.97645 -87.74734 2479 ft 144 kts 251°
2026-05-05 04:28 41.97328 -87.76004 2328 ft 142 kts 257°
2026-05-05 04:28 41.97121 -87.77292 2138 ft 140 kts 263°
2026-05-05 04:28 41.97008 -87.78589 2003 ft 139 kts 265°
2026-05-05 04:28 41.96940 -87.79890 1897 ft 138 kts 268°
2026-05-05 04:29 41.96917 -87.81173 1720 ft 137 kts 269°
2026-05-05 04:29 41.96914 -87.82458 1525 ft 138 kts 269°
2026-05-05 04:29 41.96915 -87.83763 1369 ft 141 kts 266°
2026-05-05 04:29 41.96914 -87.85087 1176 ft 143 kts 266°
2026-05-05 04:30 41.96919 -87.86445 989 ft 146 kts 266°
2026-05-05 04:30 41.96917 -87.87805 787 ft 144 kts 267°
2026-05-05 04:30 41.96912 -87.89131 676 ft 134 kts 270°
2026-05-05 04:30 41.96904 -87.90258 677 ft 98 kts 270°
2026-05-05 04:31 41.96902 -87.90955 678 ft 53 kts 269°
2026-05-05 04:31 41.96901 -87.91308 681 ft 28 kts 270°
2026-05-05 04:31 41.96903 -87.91525 683 ft 19 kts 270°
2026-05-05 04:31 41.96903 -87.91671 683 ft 13 kts 270°
2026-05-05 04:32 41.96902 -87.91796 682 ft 17 kts 270°
2026-05-05 04:32 41.96907 -87.91976 682 ft 21 kts 284°
2026-05-05 04:32 41.96979 -87.92077 677 ft 14 kts 345°
2026-05-05 04:32 41.97077 -87.92085 677 ft 3 kts 359°
2026-05-05 04:33 41.97113 -87.92084 679 ft 7 kts
2026-05-05 04:33 41.97155 -87.92040 679 ft 10 kts 66°
2026-05-05 04:33 41.97155 -87.91936 679 ft 13 kts 94°
2026-05-05 04:33 41.97152 -87.91869 679 ft 8 kts 92°
2026-05-05 04:34 41.97149 -87.91779 679 ft 11 kts 92°
2026-05-05 04:34 41.97147 -87.91660 679 ft 14 kts 90°
2026-05-05 04:34 41.97147 -87.91586 679 ft 6 kts 90°
2026-05-05 04:34 41.97146 -87.91462 678 ft 16 kts 90°
2026-05-05 04:35 41.97165 -87.91303 679 ft 19 kts 64°
2026-05-05 04:35 41.97239 -87.91170 679 ft 17 kts 55°
2026-05-05 04:35 41.97277 -87.91039 677 ft 15 kts 60°
2026-05-05 04:35 41.97336 -87.90936 676 ft 10 kts 49°
2026-05-05 04:36 41.97366 -87.90854 679 ft 7 kts 70°
2026-05-05 04:36 41.97404 -87.90826 679 ft 8 kts 350°
2026-05-05 04:36 41.97409 -87.90828 677 ft 0 kts 342°